COSMOS 2491 DEB, 45030

Orbit data source: Space-Track

COSMOS 2491 DEB, 45030 is space debris in LEO originally from a launch on Wed, 25 Dec 2013 UTC launched from the Plesetsk Missile And Space Complex (PKMTR). Debris objects in space refer to the collection of defunct objects orbiting the Earth. Examples of debris include non-operational satellites, rocket bodies, and fragments generated from explosions, collisions, or faulty payload assembly.

Loading next visibility...
Identifier
45030, 2013-076T
Orbit
LEO
Country
Flag of CISCIS
Related business
Manufacturer
TsNIIKhM
Mission
Spacecraft
Bus & Motor
Unknown
Mass
Unknown
Launch date (UTC)
2013-12-25 (13 years ago)
Launch vehicle
Unknown
Launch site
Plesetsk Missile And Space Complex (PKMTR)
Object type
Payload
Rocket body
Debris
Shape & HBR
Unknown shape, 0.1 m
Radar Cross Section
Medium (>0.1 m² and <1 m²)

Expand to show TLE details & history
Last TLE update: 2 days ago

TLE from 2 days ago
0 COSMOS 2491 DEB
1 45030U 13076T   26254.14393997  .00004266  00000-0  17529-1 0  9996
2 45030  82.3972  43.2525 0289320 281.5616  75.3135 12.72417232307048
Epoch: 2026-09-11T03:27Z
TLE epoch observation values (Epoch: 2026-09-11T03:27:16.413Z)
Latitude
-0.00003°
Longitude
1.26259°
Altitude
1,324.129 km
Speed
7.219 km/s
True Right ascension
02h 53m 00s
True Declination
0° 00' 00"
Sunlit
Object was in full shadow at epoch
Visualization orbit readout
Latitude
Unknown
Longitude
Unknown
Altitude
Unknown
Speed
Unknown
Apparent Right ascension
Unknown
Apparent Declination
Unknown
Sunlit
N/A
Visualization observer readout
Local Sidereal Time
23:21:25
Azimuth
Unknown
Elevation
Unknown
Doppler factor
Unknown
Orbital elements
Apogee altitude
1,593.571 km
Perigee altitude
1,145.267 km
Semi-major axis
7,747.556 km
Eccentricity
0.02893
Inclination
82.3972°
RAAN
43.2525°
Arg. of periapsis
281.5616°
True anomaly
78.54849°
Mean anomaly
75.3135°
Eccentric anomaly
76.92823°
Mean motion
3.1827 °/min
Orbital period
113.11 mins
BSTAR
0.017529
Loading maneuver chart data...
Computing Atmospheric mass density...
Loading historical data...
Loading historical data...
Loading historical data...
Loading historical data...
Loading historical data...
Loading historical data...
Loading historical data...

Documentation

Showing up to 5 results
|